Weather History for KDYT - March, 2014

Change the Weather History Date:

Tuesday, March 11, 2014

  Actual Average Record
Temperature  
Mean Temperature 36 °F -  
Max Temperature 41 °F 32 °F 54 °F (1957)
Min Temperature 28 °F 14 °F -11 °F (1984)
Degree Days  
Heating Degree Days 30    
Moisture  
Dew Point 23 °F    
Average Humidity 60    
Maximum Humidity 70    
Minimum Humidity 45    
Precipitation  
Precipitation 0.00 in - - ()
Sea Level Pressure  
Sea Level Pressure 29.85 in    
Wind  
Wind Speed 1 mph (NNW)    
Max Wind Speed 16 mph    
Max Gust Speed 18 mph    
Visibility 10 miles    
Events      
Averages and records for this station are not official NWS values.
T = Trace of Precipitation, MM = Missing Value Source: NWS Daily Summary

Daily Weather History Graph

Daily Weather History Graph

Search for Another Location

Airport or City:

Trip Planner

Search our weather history database for the weather conditions in past years. The results will help you decide how hot, cold, wet, or windy it might be!

Date:

Astronomy

Mar. 11, 2014 Rise Set
Actual Time 7:28 AM CDT 7:08 PM CDT
Civil Twilight 6:58 AM CDT 7:38 PM CDT
Nautical Twilight 6:23 AM CDT 8:13 PM CDT
Astronomical Twilight 5:47 AM CDT 8:49 PM CDT
Moon 2:32 PM CDT (3/11) 4:36 AM CDT (3/11)
Length of Visible Light 12h 39m
Length of Day
11h 39m
Waxing Gibbous, 78% of the Moon is Illuminated
Mar 11
Waxing Gibbous
Mar 16
Full
Mar 23
Last Quarter
Mar 30
New
Apr 7
First Quarter

Hourly Weather History & Observations

Time (CDT) Temp. Windchill Dew Point Humidity Pressure Visibility Wind Dir Wind Speed Gust Speed Precip Events Conditions
12:14 AM 41.0 °F - 30.2 °F 65% 29.66 in 10.0 mi Calm Calm - N/A   Clear
12:33 AM 41.0 °F 39.0 °F 30.2 °F 65% 29.66 in 10.0 mi WNW 3.5 mph - N/A   Clear
12:53 AM 41.0 °F - 30.2 °F 65% 29.67 in 10.0 mi Calm Calm - N/A   Clear
1:14 AM 39.2 °F - 30.2 °F 70% 29.68 in 10.0 mi Calm Calm - N/A   Clear
1:33 AM 39.2 °F - 30.2 °F 70% 29.69 in 10.0 mi Calm Calm - N/A   Clear
1:53 AM 39.2 °F - 30.2 °F 70% 29.70 in 10.0 mi Calm Calm - N/A   Clear
2:14 AM 39.2 °F - 30.2 °F 70% 29.70 in 10.0 mi Calm Calm - N/A   Clear
2:33 AM 41.0 °F - 28.4 °F 61% 29.70 in 10.0 mi Calm Calm - N/A   Clear
2:53 AM 41.0 °F - 28.4 °F 61% 29.71 in 10.0 mi Calm Calm - N/A   Clear
3:14 AM 39.2 °F - 28.4 °F 65% 29.71 in 10.0 mi Calm Calm - N/A   Clear
3:33 AM 39.2 °F - 28.4 °F 65% 29.71 in 10.0 mi Calm Calm - N/A   Clear
3:53 AM 39.2 °F - 28.4 °F 65% 29.71 in 10.0 mi Calm Calm - N/A   Clear
4:14 AM 39.2 °F - 28.4 °F 65% 29.72 in 10.0 mi Calm Calm - N/A   Clear
4:33 AM 39.2 °F - 28.4 °F 65% 29.72 in 10.0 mi Calm Calm - N/A   Clear
4:53 AM 39.2 °F - 28.4 °F 65% 29.72 in 10.0 mi Calm Calm - N/A   Clear
5:14 AM 39.2 °F - 26.6 °F 61% 29.72 in 10.0 mi Calm Calm - N/A   Clear
5:33 AM 37.4 °F - 26.6 °F 65% 29.73 in 10.0 mi Calm Calm - N/A   Clear
5:53 AM 37.4 °F - 28.4 °F 70% 29.74 in 10.0 mi Calm Calm - N/A   Clear
6:14 AM 37.4 °F - 26.6 °F 65% 29.75 in 10.0 mi Calm Calm - N/A   Clear
6:33 AM 37.4 °F - 24.8 °F 60% 29.75 in 10.0 mi Calm Calm - N/A   Clear
6:53 AM 35.6 °F - 26.6 °F 70% 29.76 in 10.0 mi Calm Calm - N/A   Clear
7:14 AM 35.6 °F - 24.8 °F 65% 29.77 in 10.0 mi Calm Calm - N/A   Clear
7:33 AM 35.6 °F - 23.0 °F 60% 29.77 in 10.0 mi Calm Calm - N/A   Clear
7:53 AM 35.6 °F - 21.2 °F 56% 29.78 in 10.0 mi Calm Calm - N/A   Clear
8:14 AM 35.6 °F - 21.2 °F 56% 29.79 in 10.0 mi Calm Calm - N/A   Clear
8:33 AM 35.6 °F - 21.2 °F 56% 29.79 in 10.0 mi Calm Calm - N/A   Clear
8:54 AM 35.6 °F - 21.2 °F 56% 29.80 in 10.0 mi Calm Calm - N/A   Clear
9:13 AM 35.6 °F - 21.2 °F 56% 29.82 in 10.0 mi Calm Calm - N/A   Clear
9:33 AM 35.6 °F - 23.0 °F 60% 29.83 in 10.0 mi Calm Calm - N/A   Clear
9:54 AM 33.8 °F - 24.8 °F 70% 29.85 in 10.0 mi Calm Calm - N/A   Clear
10:13 AM 33.8 °F 28.6 °F 24.8 °F 70% 29.86 in 10.0 mi North 5.8 mph - N/A   Clear
10:33 AM 33.8 °F - 24.8 °F 70% 29.87 in 10.0 mi Calm Calm - N/A   Clear
10:54 AM 33.8 °F - 24.8 °F 70% 29.88 in 10.0 mi Calm Calm - N/A   Clear
11:13 AM 33.8 °F - 24.8 °F 70% 29.89 in 10.0 mi Calm Calm - N/A   Clear
11:33 AM 33.8 °F - 24.8 °F 70% 29.90 in 10.0 mi Calm Calm - N/A   Clear
11:53 AM 35.6 °F - 23.0 °F 60% 29.90 in 10.0 mi Calm Calm - N/A   Clear
12:13 PM 35.6 °F - 24.8 °F 65% 29.89 in 10.0 mi Calm Calm - N/A   Clear
12:33 PM 35.6 °F - 23.0 °F 60% 29.88 in 10.0 mi Calm Calm - N/A   Clear
12:53 PM 35.6 °F - 24.8 °F 65% 29.89 in 10.0 mi Calm Calm - N/A   Clear
1:13 PM 35.6 °F - 21.2 °F 56% 29.88 in 10.0 mi Calm Calm - N/A   Clear
1:33 PM 35.6 °F - 23.0 °F 60% 29.87 in 10.0 mi Calm Calm - N/A   Clear
1:54 PM 37.4 °F - 21.2 °F 52% 29.87 in 10.0 mi Calm Calm - N/A   Clear
2:13 PM 37.4 °F - 23.0 °F 56% 29.87 in 10.0 mi Calm Calm - N/A   Clear
2:33 PM 37.4 °F - 24.8 °F 60% 29.87 in 10.0 mi Calm Calm - N/A   Clear
2:54 PM 39.2 °F - 24.8 °F 56% 29.87 in 10.0 mi Calm Calm - N/A   Clear
3:13 PM 39.2 °F 35.9 °F 21.2 °F 49% 29.87 in 10.0 mi NW 4.6 mph - N/A   Clear
3:34 PM 39.2 °F 37.0 °F 23.0 °F 52% 29.87 in 10.0 mi NNW 3.5 mph - N/A   Clear
3:53 PM 39.2 °F 35.9 °F 23.0 °F 52% 29.88 in 10.0 mi NNW 4.6 mph - N/A   Clear
4:13 PM 39.2 °F - 24.8 °F 56% 29.88 in 10.0 mi Calm Calm - N/A   Clear
4:34 PM 39.2 °F 37.0 °F 21.2 °F 49% 29.89 in 10.0 mi NNW 3.5 mph - N/A   Clear
4:53 PM 39.2 °F 31.6 °F 21.2 °F 49% 29.89 in 10.0 mi NNW 12.7 mph 18.4 mph N/A   Clear
5:13 PM 39.2 °F 31.6 °F 19.4 °F 45% 29.90 in 10.0 mi NNW 12.7 mph 18.4 mph N/A   Clear
5:34 PM 37.4 °F - 19.4 °F 48% 29.90 in 10.0 mi Calm Calm - N/A   Clear
5:53 PM 37.4 °F 29.8 °F 19.4 °F 48% 29.91 in 10.0 mi NW 11.5 mph 18.4 mph N/A   Clear
6:13 PM 37.4 °F 32.8 °F 21.2 °F 52% 29.92 in 10.0 mi NNW 5.8 mph 18.4 mph N/A   Scattered Clouds
6:34 PM 35.6 °F - 19.4 °F 52% 29.94 in 10.0 mi Calm Calm - N/A   Scattered Clouds
6:53 PM 35.6 °F 28.6 °F 19.4 °F 52% 29.94 in 10.0 mi NNW 9.2 mph - N/A   Clear
7:13 PM 35.6 °F - 17.6 °F 48% 29.96 in 10.0 mi Calm Calm - N/A   Clear
7:34 PM 33.8 °F 28.6 °F 17.6 °F 52% 29.97 in 10.0 mi NNW 5.8 mph - N/A   Clear
7:53 PM 33.8 °F - 19.4 °F 56% 29.98 in 10.0 mi Calm Calm - N/A   Clear
8:13 PM 33.8 °F - 17.6 °F 52% 29.99 in 10.0 mi Calm Calm - N/A   Mostly Cloudy
8:34 PM 33.8 °F - 17.6 °F 52% 30.00 in 10.0 mi Calm Calm - N/A   Overcast
8:53 PM 33.8 °F - 19.4 °F 56% 30.00 in 10.0 mi Calm Calm - N/A   Overcast
9:13 PM 32.0 °F 22.1 °F 17.6 °F 55% 30.01 in 10.0 mi NW 13.8 mph 18.4 mph N/A   Overcast
9:34 PM 32.0 °F 24.2 °F 17.6 °F 55% 30.01 in 10.0 mi NNW 9.2 mph - N/A   Overcast
9:53 PM 30.2 °F 19.3 °F 17.6 °F 60% 30.02 in 10.0 mi NNW 15.0 mph - N/A   Overcast
10:13 PM 30.2 °F 23.4 °F 17.6 °F 60% 30.02 in 10.0 mi NNW 6.9 mph 18.4 mph N/A   Overcast
10:33 PM 30.2 °F - 15.8 °F 55% 30.03 in 10.0 mi Calm Calm - N/A   Overcast
10:53 PM 30.2 °F 18.9 °F 19.4 °F 64% 30.04 in 10.0 mi North 16.1 mph - N/A   Overcast
11:13 PM 30.2 °F 26.7 °F 17.6 °F 60% 30.04 in 10.0 mi NNW 3.5 mph - N/A   Overcast
11:33 PM 30.2 °F 26.7 °F 15.8 °F 55% 30.04 in 10.0 mi NNW 3.5 mph 16.1 mph N/A   Overcast
11:54 PM 28.4 °F - 15.8 °F 59% 30.04 in 10.0 mi Calm Calm - N/A   Overcast